AOJ106 UUWW-UUYW

Flight info

Callsign AOJ106
Flight time 2h 30m
Altitude 41000
Route RILPO3B RILPO T753 TUNOB T791 MOVUN/K0917F450 T791 GONIB/K0907F390 T187 USINA T818 BAPAN BAPAN1B
Aircraft C750/M-SBDE3FGHRWXY/S

Departure

Time 2026-04-15 10:03
Airport Vnukovo International Airport (UUWW)

Arrival

Time 2026-04-15 12:33
Airport Vorkuta Airport (UUYW)
Time Latitude Longitude Altitude Speed Heading
2026-04-15 09:53 55.60024 37.28546 683 ft 0 kts 316°
2026-04-15 09:55 55.60024 37.28541 683 ft 1 kts 285°
2026-04-15 09:56 55.60013 37.28543 683 ft 4 kts 133°
2026-04-15 09:56 55.59965 37.28550 683 ft 8 kts 238°
2026-04-15 09:56 55.60063 37.28722 677 ft 26 kts 44°
2026-04-15 09:57 55.60178 37.28765 676 ft 20 kts 315°
2026-04-15 09:57 55.60177 37.28585 676 ft 17 kts 221°
2026-04-15 09:57 55.60094 37.28419 676 ft 20 kts 244°
2026-04-15 09:57 55.60074 37.28160 676 ft 23 kts 264°
2026-04-15 09:58 55.60118 37.27898 675 ft 14 kts 261°
2026-04-15 09:58 55.60047 37.27772 676 ft 16 kts 218°
2026-04-15 09:58 55.59958 37.27624 676 ft 19 kts 234°
2026-04-15 09:58 55.59860 37.27422 673 ft 24 kts 226°
2026-04-15 09:59 55.59731 37.27180 667 ft 30 kts 226°
2026-04-15 09:59 55.59575 37.26892 665 ft 34 kts 231°
2026-04-15 09:59 55.59466 37.26511 665 ft 37 kts 248°
2026-04-15 09:59 55.59370 37.26076 665 ft 38 kts 248°
2026-04-15 10:00 55.59275 37.25655 665 ft 36 kts 249°
2026-04-15 10:00 55.59184 37.25248 658 ft 36 kts 248°
2026-04-15 10:00 55.59096 37.24845 656 ft 34 kts 249°
2026-04-15 10:00 55.59011 37.24528 655 ft 20 kts 216°
2026-04-15 10:01 55.58932 37.24545 655 ft 2 kts 151°
2026-04-15 10:01 55.58928 37.24549 655 ft 3 kts 151°
2026-04-15 10:02 55.58882 37.24594 655 ft 12 kts 151°
2026-04-15 10:02 55.58847 37.24781 656 ft 40 kts 66°
2026-04-15 10:02 55.59077 37.25800 665 ft 128 kts 68°
2026-04-15 10:02 55.59439 37.27417 1022 ft 146 kts 68°
2026-04-15 10:03 55.59826 37.29136 1680 ft 153 kts 69°
2026-04-15 10:03 55.60223 37.30893 2412 ft 154 kts 71°
2026-04-15 10:03 55.60637 37.32748 2900 ft 173 kts 73°
2026-04-15 10:03 55.61116 37.34906 3300 ft 202 kts 72°
2026-04-15 10:04 55.61635 37.37310 4021 ft 211 kts 76°
2026-04-15 10:04 55.61667 37.39999 4532 ft 229 kts 104°
2026-04-15 10:04 55.60988 37.42480 5494 ft 228 kts 127°
2026-04-15 10:04 55.59873 37.44449 6514 ft 229 kts 140°
2026-04-15 10:05 55.58441 37.45681 7242 ft 228 kts 158°
2026-04-15 10:05 55.56787 37.45917 7168 ft 244 kts 180°
2026-04-15 10:05 55.55160 37.44996 7154 ft 253 kts 201°
2026-04-15 10:05 55.53765 37.43006 7185 ft 261 kts 216°
2026-04-15 10:06 55.52468 37.40746 7191 ft 263 kts 217°
2026-04-15 10:06 55.51156 37.38494 7192 ft 263 kts 217°
2026-04-15 10:06 55.49913 37.36106 7143 ft 271 kts 230°
2026-04-15 10:06 55.49282 37.32917 7160 ft 283 kts 257°
2026-04-15 10:07 55.49488 37.29418 7147 ft 292 kts 288°
2026-04-15 10:07 55.50540 37.26436 7154 ft 290 kts 316°
2026-04-15 10:07 55.52047 37.24073 7203 ft 291 kts 322°
2026-04-15 10:07 55.53594 37.21784 7202 ft 290 kts 322°
2026-04-15 10:08 55.55089 37.19379 7179 ft 295 kts 314°
2026-04-15 10:08 55.56563 37.16622 7686 ft 311 kts 316°
2026-04-15 10:08 55.58073 37.13934 8827 ft 309 kts 316°
2026-04-15 10:08 55.59599 37.11189 9699 ft 316 kts 315°
2026-04-15 10:09 55.61112 37.08407 10189 ft 306 kts 315°
2026-04-15 10:09 55.62578 37.05711 10171 ft 305 kts 315°
2026-04-15 10:09 55.64084 37.03085 10156 ft 303 kts 322°
2026-04-15 10:09 55.65920 37.01378 10170 ft 296 kts 342°
2026-04-15 10:10 55.67847 37.00019 10190 ft 298 kts 342°
2026-04-15 10:10 55.69767 36.98612 10197 ft 298 kts 341°
2026-04-15 10:10 55.71661 36.97201 10197 ft 298 kts 341°
2026-04-15 10:10 55.73577 36.95789 10196 ft 298 kts 342°
2026-04-15 10:11 55.75556 36.94317 10315 ft 319 kts 340°
2026-04-15 10:11 55.77585 36.92738 11212 ft 317 kts 340°
2026-04-15 10:11 55.79619 36.91162 11962 ft 321 kts 340°
2026-04-15 10:11 55.81718 36.89738 12549 ft 327 kts 350°
2026-04-15 10:12 55.84038 36.89490 12710 ft 340 kts
2026-04-15 10:12 55.86392 36.89731 13567 ft 339 kts
2026-04-15 10:12 55.88734 36.89874 14179 ft 337 kts
2026-04-15 10:12 55.90988 36.89895 14198 ft 312 kts
2026-04-15 10:13 55.93128 36.89950 14197 ft 299 kts
2026-04-15 10:13 55.95189 36.90073 14197 ft 301 kts
2026-04-15 10:13 55.97281 36.90178 14201 ft 301 kts
2026-04-15 10:13 55.99334 36.90599 14156 ft 292 kts 24°
2026-04-15 10:14 56.01149 36.92271 14153 ft 303 kts 39°
2026-04-15 10:14 56.02985 36.94443 14280 ft 326 kts 39°
2026-04-15 10:14 56.04890 36.96675 14975 ft 327 kts 39°
2026-04-15 10:14 56.06745 36.98805 15218 ft 303 kts 39°
2026-04-15 10:15 56.08461 37.00792 15202 ft 287 kts 40°
2026-04-15 10:15 56.10111 37.02751 15198 ft 288 kts 40°
2026-04-15 10:15 56.11775 37.04752 15194 ft 286 kts 43°
2026-04-15 10:15 56.13233 37.07238 15176 ft 300 kts 52°
2026-04-15 10:16 56.14738 37.10062 15250 ft 324 kts 52°
2026-04-15 10:16 56.16331 37.12954 15921 ft 326 kts 51°
2026-04-15 10:16 56.17899 37.15754 16212 ft 305 kts 51°
2026-04-15 10:16 56.19338 37.18367 16191 ft 286 kts 52°
2026-04-15 10:17 56.20721 37.20936 16207 ft 287 kts 52°
2026-04-15 10:17 56.22112 37.23501 16210 ft 286 kts 52°
2026-04-15 10:17 56.23494 37.26022 16209 ft 287 kts 52°
2026-04-15 10:17 56.24916 37.28547 16193 ft 289 kts 47°
2026-04-15 10:18 56.26726 37.30408 16165 ft 314 kts 30°
2026-04-15 10:18 56.28823 37.32010 16225 ft 340 kts 28°
2026-04-15 10:18 56.31033 37.33695 16822 ft 345 kts 28°
2026-04-15 10:18 56.33198 37.35368 17227 ft 326 kts 29°
2026-04-15 10:19 56.35207 37.36932 17217 ft 305 kts 30°
2026-04-15 10:19 56.37136 37.38453 17210 ft 303 kts 30°
2026-04-15 10:19 56.39045 37.40045 17196 ft 300 kts 36°
2026-04-15 10:19 56.40630 37.42469 17154 ft 307 kts 52°
2026-04-15 10:20 56.42175 37.45364 17198 ft 332 kts 51°
2026-04-15 10:20 56.43825 37.48371 17821 ft 337 kts 50°
2026-04-15 10:20 56.45458 37.51312 18232 ft 320 kts 51°
2026-04-15 10:20 56.46943 37.54023 18222 ft 298 kts 52°
2026-04-15 10:21 56.48371 37.56682 18221 ft 295 kts 52°
2026-04-15 10:21 56.49803 37.59342 18218 ft 295 kts 52°
2026-04-15 10:21 56.51248 37.61995 18217 ft 296 kts 51°
2026-04-15 10:21 56.52693 37.64652 18220 ft 296 kts 51°
2026-04-15 10:22 56.54137 37.67320 18217 ft 296 kts 52°
2026-04-15 10:22 56.55577 37.69986 18220 ft 296 kts 52°
2026-04-15 10:22 56.56529 37.71749 18220 ft 296 kts 52°
2026-04-15 10:22 56.57968 37.74414 18220 ft 296 kts 52°
2026-04-15 10:23 56.59408 37.77084 18224 ft 296 kts 52°
2026-04-15 10:23 56.60847 37.79757 18224 ft 296 kts 52°
2026-04-15 10:23 56.62282 37.82426 18223 ft 296 kts 52°
2026-04-15 10:23 56.63772 37.85057 18204 ft 306 kts 49°
2026-04-15 10:24 56.65358 37.87876 18225 ft 332 kts 50°
2026-04-15 10:24 56.67048 37.90957 18259 ft 356 kts 50°
2026-04-15 10:24 56.68878 37.94201 18308 ft 378 kts 48°
2026-04-15 10:24 56.70797 37.97556 18791 ft 383 kts 48°
2026-04-15 10:25 56.72708 38.00954 19400 ft 386 kts 49°
2026-04-15 10:25 56.74627 38.04419 19952 ft 390 kts 49°
2026-04-15 10:25 56.76568 38.07904 20538 ft 394 kts 49°
2026-04-15 10:25 56.78538 38.11419 21114 ft 397 kts 49°
2026-04-15 10:26 56.80497 38.14930 21675 ft 401 kts 49°
2026-04-15 10:26 56.82497 38.18531 22237 ft 405 kts 49°
2026-04-15 10:26 56.84509 38.22161 22775 ft 408 kts 48°
2026-04-15 10:26 56.86536 38.25814 23397 ft 411 kts 48°
2026-04-15 10:27 56.88671 38.29356 23880 ft 417 kts 44°
2026-04-15 10:27 56.90898 38.32788 24364 ft 419 kts 44°
2026-04-15 10:27 56.93134 38.36257 24833 ft 423 kts 44°
2026-04-15 10:27 56.95368 38.39783 25293 ft 426 kts 44°
2026-04-15 10:28 56.97595 38.43296 25758 ft 429 kts 44°
2026-04-15 10:28 56.99877 38.46874 26229 ft 432 kts 44°
2026-04-15 10:28 57.02168 38.50468 26688 ft 435 kts 44°
2026-04-15 10:28 57.04477 38.54115 27154 ft 439 kts 44°
2026-04-15 10:29 57.06800 38.57792 27634 ft 442 kts 43°
2026-04-15 10:29 57.09139 38.61492 28136 ft 445 kts 43°
2026-04-15 10:29 57.11498 38.65227 28601 ft 448 kts 43°
2026-04-15 10:29 57.13839 38.68946 29064 ft 452 kts 43°
2026-04-15 10:30 57.16224 38.72742 29541 ft 455 kts 43°
2026-04-15 10:30 57.18630 38.76577 29982 ft 459 kts 43°
2026-04-15 10:30 57.21060 38.80455 30422 ft 463 kts 43°
2026-04-15 10:30 57.23507 38.84368 30830 ft 465 kts 43°
2026-04-15 10:31 57.25960 38.88299 31238 ft 468 kts 43°
2026-04-15 10:31 57.28409 38.92231 31873 ft 464 kts 43°
2026-04-15 10:31 57.30838 38.96135 32462 ft 463 kts 43°
2026-04-15 10:31 57.33270 39.00054 32997 ft 463 kts 43°
2026-04-15 10:32 57.35670 39.03930 33526 ft 463 kts 43°
2026-04-15 10:32 57.38099 39.07857 34034 ft 463 kts 43°
2026-04-15 10:32 57.40522 39.11782 34532 ft 462 kts 43°
2026-04-15 10:32 57.42951 39.15725 34931 ft 463 kts 43°
2026-04-15 10:33 57.45375 39.19668 35377 ft 463 kts 43°
2026-04-15 10:33 57.47799 39.23615 35820 ft 463 kts 43°
2026-04-15 10:33 57.50220 39.27562 36224 ft 464 kts 43°
2026-04-15 10:33 57.52661 39.31532 36622 ft 466 kts 43°
2026-04-15 10:34 57.55106 39.35509 37013 ft 467 kts 42°
2026-04-15 10:34 57.57544 39.39491 37523 ft 466 kts 42°
2026-04-15 10:34 57.59941 39.43421 38029 ft 465 kts 43°
2026-04-15 10:34 57.62378 39.47420 38447 ft 466 kts 43°
2026-04-15 10:35 57.64814 39.51417 39001 ft 465 kts 42°
2026-04-15 10:35 57.67248 39.55419 39329 ft 466 kts 43°
2026-04-15 10:35 57.69679 39.59430 39745 ft 465 kts 43°
2026-04-15 10:35 57.72102 39.63432 40120 ft 465 kts 43°
2026-04-15 10:36 57.74532 39.67455 40457 ft 465 kts 42°
2026-04-15 10:36 57.76948 39.71460 40891 ft 464 kts 42°
2026-04-15 10:36 57.79361 39.75468 41198 ft 465 kts 42°
2026-04-15 10:36 57.81781 39.79496 41602 ft 464 kts 42°
2026-04-15 10:37 57.84191 39.83514 41985 ft 463 kts 43°
2026-04-15 10:37 57.86600 39.87537 42331 ft 464 kts 42°
2026-04-15 10:37 57.89006 39.91569 42743 ft 462 kts 42°
2026-04-15 10:37 57.91368 39.95571 43056 ft 463 kts 42°
2026-04-15 10:38 57.93756 39.99635 43426 ft 462 kts 42°
2026-04-15 10:38 57.96147 40.03691 43762 ft 463 kts 42°
2026-04-15 10:38 57.98543 40.07752 44077 ft 463 kts 42°
2026-04-15 10:38 58.00938 40.11830 44449 ft 462 kts 42°
2026-04-15 10:39 58.03323 40.15907 44771 ft 463 kts 42°
2026-04-15 10:39 58.05707 40.19985 45099 ft 462 kts 42°
2026-04-15 10:39 58.08089 40.24061 45395 ft 462 kts 42°
2026-04-15 10:39 58.10472 40.28148 45655 ft 462 kts 42°
2026-04-15 10:40 58.12851 40.32241 45944 ft 462 kts 42°
2026-04-15 10:40 58.15197 40.36283 46160 ft 462 kts 42°
2026-04-15 10:40 58.17580 40.40393 46414 ft 462 kts 42°
2026-04-15 10:40 58.19965 40.44474 46649 ft 462 kts 42°
2026-04-15 10:41 58.22367 40.48549 46850 ft 462 kts 42°
2026-04-15 10:41 58.24756 40.52628 47087 ft 462 kts 42°
2026-04-15 10:41 58.27137 40.56732 47266 ft 462 kts 42°
2026-04-15 10:42 58.31933 40.64986 47348 ft 469 kts 42°
2026-04-15 10:42 58.36810 40.73407 47364 ft 477 kts 42°
2026-04-15 10:43 58.41762 40.81999 47366 ft 484 kts 42°
2026-04-15 10:43 58.46729 40.90644 47365 ft 486 kts 42°
2026-04-15 10:44 58.51722 40.99377 47360 ft 487 kts 42°
2026-04-15 10:44 58.56712 41.08134 47378 ft 487 kts 42°
2026-04-15 10:45 58.61699 41.16924 47376 ft 486 kts 42°
2026-04-15 10:45 58.66677 41.25732 47384 ft 486 kts 42°
2026-04-15 10:46 58.71657 41.34580 47383 ft 487 kts 43°
2026-04-15 10:46 58.76597 41.43371 47377 ft 486 kts 41°
2026-04-15 10:47 58.82001 41.51214 47405 ft 487 kts 35°
2026-04-15 10:47 58.87469 41.58923 47402 ft 486 kts 37°
2026-04-15 10:48 58.92894 41.66747 47404 ft 487 kts 36°
2026-04-15 10:48 58.98360 41.74532 47396 ft 486 kts 36°
2026-04-15 10:49 59.03793 41.82401 47411 ft 489 kts 36°
2026-04-15 10:49 59.09220 41.90224 47415 ft 489 kts 36°
2026-04-15 10:50 59.14682 41.98175 47411 ft 490 kts 36°
2026-04-15 10:50 59.20147 42.06135 47422 ft 489 kts 36°
2026-04-15 10:51 59.25609 42.14138 47422 ft 490 kts 37°
2026-04-15 10:51 59.31055 42.22143 47436 ft 490 kts 37°
2026-04-15 10:52 59.36497 42.30178 47434 ft 490 kts 37°
2026-04-15 10:52 59.41398 42.39304 47427 ft 490 kts 49°
2026-04-15 10:53 59.45873 42.49440 47435 ft 490 kts 47°
2026-04-15 10:53 59.50512 42.59293 47441 ft 490 kts 48°
2026-04-15 10:54 59.55027 42.69361 47428 ft 490 kts 48°
2026-04-15 10:54 59.59601 42.79333 47436 ft 490 kts 47°
2026-04-15 10:55 59.64114 42.89365 47450 ft 490 kts 48°
2026-04-15 10:55 59.68658 42.99435 47453 ft 490 kts 48°
2026-04-15 10:56 59.73195 43.09563 47451 ft 490 kts 48°
2026-04-15 10:56 59.77691 43.19625 47453 ft 490 kts 48°
2026-04-15 10:57 59.82224 43.29765 47454 ft 490 kts 48°
2026-04-15 10:57 59.88989 43.45023 47444 ft 490 kts 48°
2026-04-15 10:58 59.93488 43.55224 47454 ft 489 kts 48°
2026-04-15 10:58 59.97975 43.65431 47458 ft 489 kts 48°
2026-04-15 10:59 60.02447 43.75621 47462 ft 489 kts 48°
2026-04-15 10:59 60.06923 43.85892 47472 ft 489 kts 48°
2026-04-15 11:00 60.11398 43.96185 47470 ft 489 kts 48°
2026-04-15 11:00 60.15826 44.06430 47465 ft 488 kts 47°
2026-04-15 11:01 60.20261 44.16729 47462 ft 488 kts 48°
2026-04-15 11:01 60.24696 44.27080 47473 ft 488 kts 48°
2026-04-15 11:02 60.29123 44.37456 47479 ft 488 kts 48°
2026-04-15 11:02 60.33560 44.47906 47485 ft 490 kts 48°
2026-04-15 11:03 60.37987 44.58375 47486 ft 490 kts 49°
2026-04-15 11:03 60.42404 44.68872 47485 ft 490 kts 48°
2026-04-15 11:04 60.46823 44.79422 47478 ft 491 kts 49°
2026-04-15 11:04 60.51205 44.89932 47479 ft 490 kts 49°
2026-04-15 11:05 60.55597 45.00515 47483 ft 489 kts 49°
2026-04-15 11:05 60.59980 45.11124 47481 ft 490 kts 49°
2026-04-15 11:06 60.64359 45.21772 47491 ft 490 kts 49°
2026-04-15 11:06 60.68734 45.32457 47483 ft 490 kts 49°
2026-04-15 11:07 60.73063 45.43084 47509 ft 490 kts 49°
2026-04-15 11:07 60.77435 45.53796 47507 ft 489 kts 49°
2026-04-15 11:08 60.81806 45.64516 47503 ft 490 kts 49°
2026-04-15 11:08 60.86158 45.75277 47508 ft 490 kts 49°
2026-04-15 11:09 60.90503 45.86042 47507 ft 489 kts 49°
2026-04-15 11:09 60.94810 45.96784 47507 ft 490 kts 49°
2026-04-15 11:10 60.99136 46.07609 47501 ft 489 kts 49°
2026-04-15 11:10 61.03450 46.18467 47509 ft 489 kts 49°
2026-04-15 11:11 61.07729 46.29413 47516 ft 490 kts 50°
2026-04-15 11:11 61.11972 46.40426 47516 ft 490 kts 49°
2026-04-15 11:12 61.16203 46.51368 47517 ft 489 kts 50°
2026-04-15 11:12 61.20427 46.62412 47511 ft 489 kts 50°
2026-04-15 11:13 61.24655 46.73475 47518 ft 489 kts 50°
2026-04-15 11:13 61.28858 46.84598 47517 ft 489 kts 50°
2026-04-15 11:14 61.32348 46.93853 47518 ft 489 kts 50°
2026-04-15 11:14 61.36540 47.05023 47517 ft 488 kts 50°
2026-04-15 11:15 61.40721 47.16223 47523 ft 489 kts 50°
2026-04-15 11:15 61.44866 47.27379 47514 ft 489 kts 50°
2026-04-15 11:16 61.49024 47.38641 47519 ft 488 kts 50°
2026-04-15 11:16 61.53353 47.49617 47514 ft 488 kts 41°
2026-04-15 11:17 61.58705 47.58149 47533 ft 480 kts 32°
2026-04-15 11:17 61.64180 47.66306 47534 ft 483 kts 35°
2026-04-15 11:18 61.69540 47.74641 47533 ft 482 kts 33°
2026-04-15 11:18 61.75000 47.82900 47534 ft 482 kts 34°
2026-04-15 11:19 61.80401 47.91307 47525 ft 481 kts 33°
2026-04-15 11:19 61.85792 47.99594 47524 ft 481 kts 34°
2026-04-15 11:20 61.91176 48.08000 47526 ft 481 kts 34°
2026-04-15 11:20 61.96576 48.16414 47535 ft 481 kts 34°
2026-04-15 11:21 62.01974 48.24894 47528 ft 481 kts 34°
2026-04-15 11:21 62.07359 48.33374 47528 ft 480 kts 34°
2026-04-15 11:22 62.12732 48.41883 47521 ft 480 kts 34°
2026-04-15 11:22 62.18068 48.50366 47522 ft 481 kts 34°
2026-04-15 11:23 62.23437 48.58943 47531 ft 481 kts 34°
2026-04-15 11:23 62.28797 48.67544 47530 ft 481 kts 34°
2026-04-15 11:24 62.33945 48.76779 47525 ft 482 kts 39°
2026-04-15 11:24 62.38938 48.86314 47529 ft 482 kts 38°
2026-04-15 11:25 62.43997 48.95846 47527 ft 482 kts 38°
2026-04-15 11:25 62.49017 49.05468 47520 ft 482 kts 38°
2026-04-15 11:26 62.54058 49.15096 47525 ft 485 kts 39°
2026-04-15 11:26 62.59103 49.24832 47528 ft 484 kts 39°
2026-04-15 11:27 62.64109 49.34503 47527 ft 484 kts 39°
2026-04-15 11:27 62.69133 49.44275 47528 ft 484 kts 39°
2026-04-15 11:28 62.74159 49.54086 47529 ft 485 kts 39°
2026-04-15 11:28 62.79177 49.63934 47517 ft 485 kts 39°
2026-04-15 11:29 62.84182 49.73801 47524 ft 485 kts 39°
2026-04-15 11:29 62.89180 49.83702 47525 ft 485 kts 39°
2026-04-15 11:30 62.94181 49.93658 47525 ft 485 kts 39°
2026-04-15 11:30 62.99167 50.03632 47524 ft 485 kts 39°
2026-04-15 11:31 63.04121 50.13589 47517 ft 485 kts 39°
2026-04-15 11:31 63.09093 50.23630 47519 ft 485 kts 39°
2026-04-15 11:32 63.14067 50.33726 47527 ft 485 kts 39°
2026-04-15 11:32 63.19028 50.43842 47521 ft 485 kts 39°
2026-04-15 11:33 63.23987 50.54004 47522 ft 485 kts 39°
2026-04-15 11:33 63.28900 50.64123 47512 ft 484 kts 39°
2026-04-15 11:34 63.33828 50.74322 47511 ft 484 kts 39°
2026-04-15 11:34 63.38756 50.84570 47514 ft 484 kts 39°
2026-04-15 11:35 63.43675 50.94849 47514 ft 484 kts 39°
2026-04-15 11:35 63.48588 51.05168 47514 ft 485 kts 40°
2026-04-15 11:36 63.53505 51.15548 47510 ft 483 kts 40°
2026-04-15 11:36 63.58364 51.25852 47506 ft 484 kts 40°
2026-04-15 11:37 63.63252 51.36274 47505 ft 484 kts 40°
2026-04-15 11:37 63.68128 51.46741 47505 ft 484 kts 40°
2026-04-15 11:38 63.72985 51.57278 47507 ft 484 kts 40°
2026-04-15 11:38 63.77852 51.67851 47505 ft 484 kts 40°
2026-04-15 11:39 63.82669 51.78390 47505 ft 484 kts 40°
2026-04-15 11:39 63.87514 51.89032 47504 ft 485 kts 40°
2026-04-15 11:40 63.92366 51.99750 47505 ft 487 kts 40°
2026-04-15 11:40 63.97214 52.10513 47545 ft 487 kts 41°
2026-04-15 11:41 64.02035 52.21271 47490 ft 484 kts 41°
2026-04-15 11:41 64.06850 52.32068 47490 ft 485 kts 41°
2026-04-15 11:42 64.11638 52.42860 47492 ft 485 kts 41°
2026-04-15 11:42 64.16442 52.53744 47492 ft 485 kts 41°
2026-04-15 11:43 64.21235 52.64660 47527 ft 485 kts 41°
2026-04-15 11:43 64.26010 52.75592 47486 ft 484 kts 41°
2026-04-15 11:44 64.30775 52.86554 47485 ft 484 kts 41°
2026-04-15 11:44 64.35534 52.97563 47487 ft 484 kts 41°
2026-04-15 11:45 64.40252 53.08532 47487 ft 484 kts 41°
2026-04-15 11:45 64.45003 53.19634 47507 ft 484 kts 41°
2026-04-15 11:46 64.49718 53.30712 47493 ft 482 kts 41°
2026-04-15 11:46 64.54433 53.41845 47485 ft 483 kts 41°
2026-04-15 11:47 64.59132 53.53004 47486 ft 483 kts 42°
2026-04-15 11:47 64.63837 53.64229 47486 ft 483 kts 42°
2026-04-15 11:48 64.68495 53.75407 47492 ft 483 kts 42°
2026-04-15 11:48 64.73167 53.86674 47480 ft 482 kts 42°
2026-04-15 11:49 64.77840 53.98002 47478 ft 482 kts 42°
2026-04-15 11:49 64.82499 54.09361 47481 ft 483 kts 42°
2026-04-15 11:50 64.87122 54.20690 47472 ft 483 kts 42°
2026-04-15 11:50 64.91775 54.32152 47470 ft 483 kts 42°
2026-04-15 11:51 64.96409 54.43629 47463 ft 483 kts 42°
2026-04-15 11:51 65.01008 54.55081 47463 ft 483 kts 43°
2026-04-15 11:52 65.05629 54.66650 47461 ft 483 kts 43°
2026-04-15 11:52 65.10242 54.78262 47461 ft 483 kts 43°
2026-04-15 11:53 65.14844 54.89908 47466 ft 484 kts 43°
2026-04-15 11:53 65.19427 55.01571 47468 ft 483 kts 43°
2026-04-15 11:54 65.24025 55.13330 47468 ft 485 kts 43°
2026-04-15 11:54 65.28617 55.25150 47472 ft 485 kts 43°
2026-04-15 11:55 65.33163 55.36905 47461 ft 485 kts 43°
2026-04-15 11:55 65.37737 55.48804 47470 ft 485 kts 43°
2026-04-15 11:56 65.42284 55.60696 47454 ft 483 kts 43°
2026-04-15 11:56 65.46822 55.72629 47454 ft 483 kts 43°
2026-04-15 11:57 65.53618 55.90626 47453 ft 484 kts 44°
2026-04-15 11:58 65.58134 56.02668 47453 ft 484 kts 44°
2026-04-15 11:58 65.62643 56.14761 47451 ft 483 kts 44°
2026-04-15 11:59 65.67105 56.26793 47452 ft 484 kts 44°
2026-04-15 11:59 65.71605 56.38997 47451 ft 484 kts 44°
2026-04-15 12:00 65.76091 56.51230 47451 ft 484 kts 44°
2026-04-15 12:00 65.80534 56.63552 47436 ft 486 kts 47°
2026-04-15 12:01 65.84353 56.77232 47456 ft 486 kts 52°
2026-04-15 12:01 65.88090 56.90861 47461 ft 486 kts 52°
2026-04-15 12:02 65.91847 57.04666 47459 ft 487 kts 52°
2026-04-15 12:02 65.95589 57.18523 47460 ft 487 kts 52°
2026-04-15 12:03 65.99317 57.32382 47455 ft 487 kts 52°
2026-04-15 12:03 66.02994 57.46369 47450 ft 486 kts 54°
2026-04-15 12:04 66.05959 57.58107 47457 ft 486 kts 53°
2026-04-15 12:04 66.10175 57.74503 47458 ft 486 kts 53°
2026-04-15 12:05 66.13750 57.88690 47443 ft 487 kts 54°
2026-04-15 12:05 66.16732 58.00488 47446 ft 487 kts 54°
2026-04-15 12:06 66.20300 58.14748 47447 ft 488 kts 54°
2026-04-15 12:06 66.23865 58.29004 47445 ft 487 kts 54°
2026-04-15 12:07 66.27420 58.43328 47443 ft 487 kts 54°
2026-04-15 12:07 66.30961 58.57694 47444 ft 487 kts 54°
2026-04-15 12:07 66.32712 58.64830 47035 ft 481 kts 54°
2026-04-15 12:08 66.34434 58.71888 46417 ft 472 kts 54°
2026-04-15 12:08 66.36125 58.78833 45794 ft 464 kts 54°
2026-04-15 12:08 66.37789 58.85672 45163 ft 457 kts 54°
2026-04-15 12:08 66.39397 58.92303 44575 ft 449 kts 54°
2026-04-15 12:09 66.41002 58.98950 43991 ft 445 kts 54°
2026-04-15 12:09 66.42598 59.05577 43409 ft 445 kts 54°
2026-04-15 12:09 66.44194 59.12216 42822 ft 447 kts 53°
2026-04-15 12:09 66.45794 59.18900 42232 ft 449 kts 53°
2026-04-15 12:10 66.47393 59.25609 41644 ft 449 kts 53°
2026-04-15 12:10 66.48992 59.32337 41049 ft 449 kts 53°
2026-04-15 12:10 66.50588 59.39066 40457 ft 448 kts 53°
2026-04-15 12:10 66.52173 59.45771 39866 ft 447 kts 53°
2026-04-15 12:11 66.53754 59.52480 39278 ft 446 kts 53°
2026-04-15 12:11 66.55331 59.59193 38625 ft 445 kts 53°
2026-04-15 12:11 66.56895 59.65879 38045 ft 441 kts 53°
2026-04-15 12:11 66.58444 59.72512 37467 ft 440 kts 52°
2026-04-15 12:12 66.59973 59.79075 36894 ft 440 kts 52°
2026-04-15 12:12 66.61533 59.85799 36307 ft 439 kts 52°
2026-04-15 12:12 66.63043 59.92335 35738 ft 437 kts 51°
2026-04-15 12:12 66.64568 59.98948 35164 ft 435 kts 51°
2026-04-15 12:13 66.66084 60.05536 34591 ft 433 kts 51°
2026-04-15 12:13 66.67589 60.12101 33996 ft 431 kts 50°
2026-04-15 12:13 66.69088 60.18665 33424 ft 430 kts 50°
2026-04-15 12:13 66.70578 60.25205 32856 ft 429 kts 49°
2026-04-15 12:14 66.72065 60.31745 32311 ft 432 kts 50°
2026-04-15 12:14 66.73560 60.38332 31715 ft 431 kts 50°
2026-04-15 12:14 66.75046 60.44933 31153 ft 431 kts 49°
2026-04-15 12:14 66.76523 60.51508 30581 ft 426 kts 49°
2026-04-15 12:15 66.77957 60.57911 29984 ft 420 kts 49°
2026-04-15 12:15 66.79401 60.64336 29435 ft 418 kts 49°
2026-04-15 12:15 66.80828 60.70721 28885 ft 415 kts 50°
2026-04-15 12:15 66.82241 60.77090 28341 ft 412 kts 50°
2026-04-15 12:16 66.83644 60.83428 27798 ft 409 kts 50°
2026-04-15 12:16 66.85036 60.89714 27263 ft 407 kts 50°
2026-04-15 12:16 66.86400 60.95892 26737 ft 404 kts 51°
2026-04-15 12:16 66.87784 61.02193 26199 ft 402 kts 51°
2026-04-15 12:17 66.89123 61.08306 25678 ft 399 kts 51°
2026-04-15 12:17 66.90472 61.14475 25155 ft 397 kts 52°
2026-04-15 12:17 66.91809 61.20607 24635 ft 395 kts 52°
2026-04-15 12:17 66.93134 61.26708 24117 ft 392 kts 52°
2026-04-15 12:18 66.94450 61.32782 23558 ft 389 kts 53°
2026-04-15 12:18 66.95756 61.38828 23044 ft 387 kts 53°
2026-04-15 12:18 66.97051 61.44832 22534 ft 385 kts 53°
2026-04-15 12:18 66.98335 61.50808 22028 ft 382 kts 53°
2026-04-15 12:19 66.99593 61.56684 21534 ft 380 kts 53°
2026-04-15 12:19 67.00857 61.62601 21030 ft 378 kts 53°
2026-04-15 12:19 67.02114 61.68500 20538 ft 376 kts 53°
2026-04-15 12:19 67.03362 61.74367 20044 ft 374 kts 54°
2026-04-15 12:20 67.04600 61.80205 19574 ft 372 kts 54°
2026-04-15 12:20 67.05830 61.86031 19065 ft 370 kts 54°
2026-04-15 12:20 67.07053 61.91837 18550 ft 369 kts 55°
2026-04-15 12:20 67.08265 61.97604 18056 ft 366 kts 55°
2026-04-15 12:21 67.09469 62.03347 17564 ft 364 kts 55°
2026-04-15 12:21 67.10663 62.09061 17093 ft 361 kts 55°
2026-04-15 12:21 67.11831 62.14660 16624 ft 359 kts 55°
2026-04-15 12:21 67.13006 62.20312 16141 ft 357 kts 55°
2026-04-15 12:22 67.14173 62.25939 15681 ft 355 kts 55°
2026-04-15 12:22 67.15330 62.31534 15214 ft 353 kts 55°
2026-04-15 12:22 67.16555 62.36930 14745 ft 347 kts 50°
2026-04-15 12:22 67.17893 62.42097 14291 ft 345 kts 49°
2026-04-15 12:23 67.19211 62.47248 13808 ft 343 kts 50°
2026-04-15 12:23 67.20510 62.52414 13356 ft 342 kts 50°
2026-04-15 12:23 67.21800 62.57534 12905 ft 340 kts 50°
2026-04-15 12:23 67.23085 62.62615 12464 ft 336 kts 51°
2026-04-15 12:24 67.24359 62.67668 12016 ft 334 kts 51°
2026-04-15 12:24 67.25622 62.72697 11577 ft 331 kts 52°
2026-04-15 12:24 67.26811 62.77475 11150 ft 307 kts 52°
2026-04-15 12:24 67.27926 62.81954 10759 ft 287 kts 51°
2026-04-15 12:25 67.28985 62.86177 10392 ft 275 kts 51°
2026-04-15 12:25 67.30019 62.90299 10002 ft 271 kts 51°
2026-04-15 12:25 67.31040 62.94402 9656 ft 270 kts 52°
2026-04-15 12:25 67.32053 62.98489 9302 ft 269 kts 52°
2026-04-15 12:26 67.33063 63.02567 8950 ft 268 kts 52°
2026-04-15 12:26 67.34066 63.06625 8601 ft 267 kts 52°
2026-04-15 12:26 67.35066 63.10678 8251 ft 266 kts 52°
2026-04-15 12:26 67.36061 63.14716 7898 ft 265 kts 52°
2026-04-15 12:27 67.37050 63.18740 7546 ft 264 kts 52°
2026-04-15 12:27 67.38036 63.22759 7197 ft 263 kts 52°
2026-04-15 12:27 67.39007 63.26721 6854 ft 262 kts 53°
2026-04-15 12:27 67.39983 63.30714 6493 ft 261 kts 53°
2026-04-15 12:28 67.40953 63.34688 6167 ft 260 kts 52°
2026-04-15 12:28 67.41910 63.38621 5802 ft 254 kts 52°
2026-04-15 12:28 67.42854 63.42504 5465 ft 253 kts 52°
2026-04-15 12:28 67.43794 63.46372 5125 ft 252 kts 52°
2026-04-15 12:29 67.44731 63.50233 4788 ft 252 kts 53°
2026-04-15 12:29 67.45665 63.54098 4459 ft 251 kts 53°
2026-04-15 12:29 67.46584 63.57905 4134 ft 251 kts 53°
2026-04-15 12:29 67.47514 63.61761 3801 ft 251 kts 54°
2026-04-15 12:30 67.48443 63.65622 3460 ft 252 kts 54°
2026-04-15 12:30 67.49371 63.69488 3124 ft 250 kts 54°
2026-04-15 12:30 67.50268 63.73369 2769 ft 250 kts 59°
2026-04-15 12:30 67.50592 63.77839 2393 ft 254 kts 91°
2026-04-15 12:31 67.50305 63.82072 1966 ft 214 kts 100°
2026-04-15 12:31 67.50007 63.85469 1612 ft 171 kts 100°
2026-04-15 12:31 67.49782 63.88210 1405 ft 140 kts 99°
2026-04-15 12:31 67.49596 63.90559 1109 ft 130 kts 99°
2026-04-15 12:32 67.49409 63.92827 844 ft 120 kts 101°
2026-04-15 12:32 67.49221 63.94870 695 ft 118 kts 103°
2026-04-15 12:32 67.49068 63.97114 633 ft 128 kts 98°
2026-04-15 12:32 67.48906 63.99195 601 ft 96 kts 104°
2026-04-15 12:33 67.48813 64.00298 602 ft 23 kts 102°
2026-04-15 12:33 67.48790 64.00557 603 ft 9 kts 101°
2026-04-15 12:33 67.48774 64.00749 601 ft 13 kts 102°
2026-04-15 12:33 67.48753 64.01018 601 ft 17 kts 101°
2026-04-15 12:34 67.48724 64.01377 598 ft 22 kts 102°
2026-04-15 12:34 67.48786 64.01655 600 ft 19 kts 350°
2026-04-15 12:34 67.48846 64.01654 600 ft 6 kts 122°
2026-04-15 12:34 67.48781 64.01649 600 ft 15 kts 187°
2026-04-15 12:35 67.48722 64.01427 599 ft 25 kts 274°
2026-04-15 12:35 67.48754 64.00993 601 ft 21 kts 281°
2026-04-15 12:35 67.48784 64.00593 603 ft 24 kts 281°
2026-04-15 12:35 67.48815 64.00208 602 ft 20 kts 282°
2026-04-15 12:36 67.48849 63.99971 600 ft 8 kts 356°
2026-04-15 12:36 67.48899 64.00068 600 ft 10 kts 50°
2026-04-15 12:36 67.48950 64.00234 600 ft 7 kts 51°
2026-04-15 12:36 67.48961 64.00312 600 ft 3 kts 141°
2026-04-15 12:37 67.48941 64.00362 600 ft 2 kts 135°
2026-04-15 12:37 67.48941 64.00363 600 ft 0 kts 135°